Location: Ida Center
(41.8662°N, 83.5713°W)
Time: 20:58:14
(UTC+00:00)

Meteor 2-3 Rocket - Pass Details

Date: 17 November 2019
Orbit: 843 x 884 km, 81.2° (Epoch: 11 December)

Event Time Altitude Azimuth Distance (km) Brightness Sun altitude
Rises 22:30:23 0° 349° (N) 3,493 6.8 -4.0°
Reaches altitude 10° 22:32:51 10° 349° (N) 2,547 6.1 -4.4°
Maximum altitude 22:38:40 84° 262° (W) 886 3.9 -5.4°
Drops below altitude 10° 22:44:23 10° 175° (S) 2,508 6.4 -6.4°
Sets 22:46:47 0° 174° (S) 3,435 7.1 -6.8°
